GEFSNGP_prec_meanprecacc_186.txt.gz
Total_Precipitation_Accumulation
0.03 0.06 0.11 0.11 0.08 0.07 0.06 0.05 0.05 0.06 0.11 0.20 0.30 0.34 0.33 0.33 0.38 0.39 0.33 0.32 0.42 0.52 0.55 0.48 0.43 0.42 0.45 0.55 0.64 0.79 0.98 1.04 1.05 1.15 1.28 1.45 1.64 1.71 1.73 1.76 1.76 1.87 1.84 1.74
0.04 0.06 0.08 0.07 0.06 0.06 0.06 0.05 0.05 0.07 0.11 0.17 0.27 0.30 0.26 0.27 0.29 0.34 0.38 0.39 0.44 0.59 0.66 0.68 0.67 0.66 0.71 0.81 0.95 1.16 1.40 1.47 1.57 1.65 1.74 1.85 1.92 1.94 2.01 2.03 2.01 1.94 1.86 1.84
0.09 0.09 0.10 0.08 0.07 0.07 0.07 0.07 0.07 0.11 0.16 0.22 0.29 0.31 0.37 0.37 0.36 0.46 0.51 0.54 0.55 0.67 0.74 0.82 0.81 0.79 0.89 0.99 1.18 1.37 1.50 1.56 1.68 1.78 1.86 1.91 1.99 2.04 2.02 2.00 1.94 1.85 1.85 1.88
0.16 0.18 0.19 0.11 0.13 0.14 0.14 0.17 0.19 0.19 0.23 0.29 0.37 0.38 0.42 0.45 0.42 0.45 0.55 0.66 0.66 0.73 0.78 0.80 0.86 0.93 1.01 1.06 1.14 1.38 1.50 1.55 1.57 1.61 1.67 1.78 1.88 1.89 1.83 1.79 1.76 1.70 1.69 1.60
0.28 0.25 0.26 0.25 0.23 0.23 0.27 0.34 0.29 0.32 0.38 0.40 0.41 0.42 0.43 0.48 0.61 0.59 0.56 0.62 0.67 0.76 0.77 0.82 0.85 0.91 0.91 0.98 1.08 1.21 1.29 1.35 1.36 1.46 1.56 1.64 1.69 1.71 1.73 1.69 1.53 1.39 1.32 1.30
0.40 0.40 0.39 0.39 0.42 0.33 0.35 0.59 0.58 0.55 0.53 0.49 0.53 0.63 0.58 0.46 0.49 0.53 0.53 0.56 0.64 0.77 0.79 0.81 0.87 0.89 0.91 0.98 1.10 1.23 1.36 1.46 1.51 1.56 1.64 1.61 1.62 1.64 1.59 1.52 1.43 1.39 1.31 1.25
0.44 0.48 0.50 0.46 0.40 0.39 0.65 0.88 0.86 0.88 0.83 0.68 0.70 0.69 0.60 0.48 0.46 0.49 0.54 0.59 0.63 0.75 0.88 0.88 0.91 0.98 1.06 1.10 1.16 1.25 1.33 1.42 1.45 1.47 1.51 1.51 1.56 1.50 1.49 1.47 1.43 1.34 1.26 1.24
0.63 0.79 0.92 0.69 0.58 0.76 0.91 0.70 0.72 0.85 1.01 1.01 0.91 0.73 0.60 0.50 0.45 0.45 0.44 0.49 0.64 0.74 0.85 0.94 1.04 1.16 1.21 1.17 1.18 1.26 1.38 1.46 1.43 1.43 1.41 1.39 1.36 1.31 1.31 1.31 1.27 1.22 1.22 1.23
0.91 1.05 0.97 0.79 0.78 0.76 0.85 0.96 0.98 1.05 1.17 1.15 1.04 0.82 0.67 0.58 0.53 0.47 0.45 0.48 0.55 0.66 0.81 0.90 1.04 1.17 1.26 1.30 1.37 1.40 1.46 1.53 1.55 1.49 1.44 1.43 1.44 1.42 1.36 1.35 1.33 1.26 1.19 1.10
1.07 1.21 1.04 0.86 0.87 0.88 0.95 1.11 1.14 1.08 1.06 1.00 0.93 0.83 0.79 0.75 0.67 0.65 0.63 0.62 0.68 0.76 0.82 0.89 0.98 1.09 1.20 1.29 1.36 1.48 1.51 1.53 1.56 1.55 1.52 1.47 1.47 1.45 1.41 1.37 1.31 1.22 1.14 1.08
1.24 1.41 1.34 1.20 1.11 1.04 1.06 1.02 1.10 1.03 1.03 0.97 0.87 0.82 0.83 0.88 0.91 0.86 0.82 0.81 0.83 0.88 0.91 0.94 1.00 1.09 1.22 1.31 1.36 1.44 1.52 1.52 1.50 1.46 1.43 1.41 1.38 1.35 1.27 1.22 1.18 1.11 1.02 1.00
1.53 1.53 1.65 1.56 1.28 1.12 1.18 1.14 1.09 1.03 1.05 1.07 0.98 0.89 0.89 0.97 1.01 0.99 0.92 0.88 0.87 0.90 0.91 0.92 0.99 1.10 1.16 1.31 1.46 1.53 1.49 1.37 1.30 1.20 1.17 1.16 1.16 1.18 1.23 1.09 1.07 1.00 0.94 0.86
1.27 1.46 1.57 1.48 1.27 1.23 1.24 1.27 1.25 1.21 1.14 1.12 1.18 1.13 1.01 0.98 0.97 0.93 0.91 0.92 0.90 0.91 0.92 0.96 1.03 1.09 1.07 1.10 1.24 1.38 1.36 1.24 1.15 1.09 1.08 1.04 0.99 0.99 1.05 1.04 0.96 0.89 0.91 0.85
1.18 1.36 1.57 1.48 1.41 1.34 1.23 1.29 1.29 1.33 1.35 1.26 1.28 1.26 1.14 1.06 1.01 0.97 0.93 0.83 0.77 0.77 0.82 0.88 0.95 1.04 1.07 1.06 1.12 1.18 1.21 1.21 1.09 1.00 1.00 0.98 0.95 0.96 0.98 1.01 1.02 0.95 0.90 0.87
1.21 1.20 1.27 1.24 1.26 1.31 1.24 1.21 1.27 1.38 1.43 1.40 1.38 1.28 1.14 1.11 1.06 0.99 0.86 0.76 0.74 0.77 0.76 0.79 0.85 0.87 0.89 0.98 1.05 1.05 1.08 1.05 0.97 0.96 0.98 0.96 0.96 0.94 0.93 0.95 0.98 0.94 0.86 0.87
1.17 1.09 1.05 1.17 1.27 1.31 1.35 1.32 1.29 1.27 1.19 1.17 1.20 1.20 1.11 1.02 0.96 0.92 0.85 0.78 0.74 0.74 0.76 0.76 0.76 0.76 0.74 0.78 0.90 0.94 0.93 1.04 0.93 0.88 0.90 0.93 0.97 0.99 0.96 0.98 1.01 0.99 0.92 0.88
1.15 1.11 1.11 1.15 1.15 1.21 1.26 1.21 1.16 1.09 1.08 1.05 1.05 1.04 1.01 1.02 0.97 0.91 0.88 0.80 0.73 0.72 0.78 0.82 0.80 0.77 0.76 0.78 0.84 0.89 0.85 0.86 0.88 0.80 0.78 0.80 0.84 0.90 0.91 0.93 0.96 0.94 0.87 0.81
1.06 0.98 1.05 1.13 1.06 1.05 1.01 0.98 0.92 0.82 0.87 0.95 1.00 1.00 0.93 0.88 0.83 0.84 0.84 0.79 0.69 0.65 0.66 0.70 0.70 0.69 0.70 0.71 0.73 0.80 0.79 0.74 0.73 0.75 0.79 0.78 0.77 0.83 0.85 0.86 0.87 0.90 0.91 0.89
0.93 0.89 0.89 0.89 0.88 0.85 0.78 0.82 0.81 0.75 0.71 0.78 0.86 0.87 0.84 0.81 0.76 0.71 0.72 0.76 0.76 0.71 0.62 0.54 0.58 0.55 0.60 0.67 0.71 0.72 0.75 0.76 0.76 0.77 0.81 0.87 0.88 0.89 0.88 0.87 0.89 0.92 0.91 0.91
0.84 0.86 0.82 0.75 0.74 0.77 0.72 0.68 0.67 0.65 0.64 0.65 0.73 0.78 0.77 0.73 0.71 0.73 0.76 0.81 0.81 0.70 0.53 0.46 0.40 0.40 0.44 0.52 0.62 0.63 0.70 0.71 0.71 0.75 0.80 0.85 0.87 0.90 0.87 0.83 0.84 0.88 0.92 0.98
0.89 0.81 0.76 0.76 0.70 0.68 0.71 0.68 0.68 0.68 0.62 0.61 0.65 0.67 0.68 0.67 0.62 0.64 0.73 0.82 0.77 0.60 0.49 0.52 0.44 0.37 0.36 0.41 0.47 0.49 0.59 0.68 0.70 0.70 0.69 0.71 0.74 0.76 0.77 0.79 0.85 0.94 0.98 1.01
1.00 0.87 0.76 0.71 0.70 0.71 0.72 0.72 0.67 0.68 0.67 0.71 0.72 0.67 0.67 0.69 0.65 0.65 0.65 0.72 0.70 0.67 0.52 0.47 0.47 0.46 0.41 0.38 0.35 0.42 0.52 0.63 0.67 0.68 0.66 0.66 0.71 0.73 0.73 0.80 0.87 0.90 0.95 0.96
0.89 0.82 0.78 0.75 0.72 0.72 0.70 0.68 0.64 0.62 0.63 0.69 0.73 0.74 0.72 0.71 0.70 0.70 0.70 0.62 0.57 0.60 0.54 0.52 0.53 0.52 0.47 0.39 0.39 0.43 0.47 0.52 0.54 0.54 0.54 0.56 0.60 0.67 0.71 0.72 0.71 0.72 0.78 0.82
0.89 0.81 0.77 0.70 0.66 0.68 0.71 0.70 0.67 0.64 0.61 0.65 0.67 0.67 0.68 0.68 0.68 0.64 0.69 0.76 0.69 0.57 0.50 0.56 0.52 0.45 0.44 0.44 0.45 0.44 0.43 0.44 0.46 0.49 0.51 0.53 0.55 0.58 0.57 0.55 0.53 0.54 0.61 0.73
0.91 0.87 0.83 0.80 0.80 0.75 0.70 0.68 0.67 0.65 0.60 0.64 0.66 0.66 0.64 0.64 0.68 0.72 0.72 0.68 0.67 0.57 0.47 0.42 0.41 0.36 0.33 0.37 0.40 0.41 0.40 0.40 0.39 0.37 0.37 0.42 0.44 0.44 0.44 0.42 0.43 0.46 0.51 0.59
1.00 0.95 0.90 0.87 0.88 0.80 0.70 0.70 0.76 0.78 0.74 0.73 0.71 0.68 0.66 0.70 0.75 0.81 0.79 0.72 0.62 0.51 0.43 0.37 0.30 0.27 0.26 0.30 0.33 0.34 0.34 0.35 0.38 0.35 0.32 0.34 0.33 0.31 0.30 0.32 0.36 0.42 0.46 0.46
1.03 0.94 0.88 0.82 0.80 0.74 0.73 0.75 0.79 0.85 0.88 0.82 0.75 0.68 0.69 0.77 0.82 0.81 0.72 0.66 0.58 0.50 0.40 0.31 0.28 0.27 0.26 0.27 0.28 0.28 0.29 0.30 0.35 0.44 0.57 0.63 0.47 0.33 0.30 0.32 0.34 0.40 0.46 0.45

GEFSNGP_prec_meanprecacc_192.txt.gz
Total_Precipitation_Accumulation
0.03 0.06 0.11 0.11 0.08 0.07 0.06 0.05 0.05 0.06 0.11 0.20 0.31 0.35 0.33 0.33 0.38 0.39 0.33 0.32 0.42 0.53 0.56 0.49 0.45 0.44 0.46 0.56 0.66 0.83 1.02 1.06 1.07 1.17 1.31 1.48 1.68 1.75 1.78 1.81 1.81 1.94 1.90 1.80
0.04 0.06 0.08 0.07 0.06 0.06 0.06 0.05 0.05 0.08 0.12 0.18 0.27 0.30 0.26 0.27 0.30 0.34 0.38 0.39 0.44 0.59 0.67 0.69 0.67 0.66 0.72 0.82 0.97 1.19 1.44 1.53 1.61 1.69 1.78 1.89 1.96 1.99 2.07 2.10 2.07 2.01 1.94 1.91
0.09 0.09 0.10 0.08 0.07 0.07 0.07 0.07 0.07 0.12 0.17 0.22 0.29 0.31 0.37 0.37 0.36 0.46 0.52 0.55 0.55 0.67 0.75 0.83 0.82 0.80 0.90 1.00 1.20 1.39 1.52 1.59 1.72 1.83 1.92 1.98 2.05 2.10 2.07 2.05 1.99 1.91 1.94 1.96
0.16 0.18 0.19 0.11 0.13 0.14 0.14 0.17 0.19 0.19 0.23 0.29 0.37 0.39 0.42 0.45 0.42 0.45 0.55 0.66 0.67 0.74 0.79 0.80 0.86 0.94 1.02 1.07 1.15 1.39 1.52 1.58 1.61 1.67 1.74 1.85 1.96 1.95 1.87 1.83 1.80 1.75 1.74 1.66
0.28 0.25 0.26 0.25 0.23 0.23 0.27 0.34 0.29 0.32 0.38 0.40 0.41 0.42 0.44 0.48 0.61 0.59 0.56 0.62 0.67 0.76 0.78 0.82 0.86 0.92 0.93 0.99 1.09 1.22 1.31 1.39 1.41 1.51 1.61 1.69 1.74 1.76 1.78 1.73 1.57 1.42 1.35 1.35
0.41 0.40 0.39 0.39 0.42 0.33 0.35 0.59 0.58 0.55 0.53 0.49 0.53 0.64 0.59 0.47 0.49 0.53 0.54 0.56 0.65 0.77 0.79 0.82 0.87 0.90 0.92 1.00 1.12 1.25 1.39 1.49 1.56 1.61 1.68 1.65 1.67 1.69 1.64 1.56 1.46 1.43 1.35 1.29
0.44 0.48 0.51 0.46 0.40 0.39 0.65 0.88 0.86 0.88 0.83 0.68 0.70 0.69 0.60 0.48 0.46 0.49 0.55 0.59 0.64 0.76 0.88 0.89 0.92 0.99 1.07 1.12 1.19 1.27 1.37 1.47 1.51 1.53 1.56 1.58 1.62 1.56 1.53 1.52 1.47 1.38 1.30 1.28
0.63 0.79 0.93 0.69 0.58 0.77 0.92 0.70 0.72 0.86 1.02 1.01 0.93 0.74 0.60 0.50 0.46 0.45 0.44 0.49 0.64 0.75 0.86 0.95 1.05 1.16 1.22 1.19 1.20 1.29 1.42 1.51 1.49 1.50 1.48 1.46 1.44 1.38 1.37 1.36 1.31 1.27 1.26 1.26
0.92 1.06 0.98 0.79 0.79 0.76 0.85 0.96 0.98 1.06 1.18 1.16 1.04 0.82 0.67 0.58 0.53 0.48 0.46 0.49 0.56 0.67 0.82 0.91 1.05 1.19 1.28 1.33 1.40 1.43 1.50 1.60 1.63 1.60 1.55 1.55 1.56 1.53 1.46 1.44 1.40 1.31 1.23 1.13
1.08 1.22 1.05 0.87 0.87 0.88 0.96 1.11 1.15 1.08 1.06 1.00 0.93 0.83 0.79 0.75 0.67 0.65 0.63 0.63 0.68 0.76 0.83 0.90 0.99 1.10 1.22 1.32 1.41 1.53 1.57 1.60 1.64 1.64 1.63 1.62 1.64 1.61 1.55 1.49 1.41 1.31 1.21 1.13
1.26 1.43 1.35 1.20 1.11 1.05 1.06 1.03 1.11 1.03 1.03 0.97 0.87 0.83 0.83 0.89 0.92 0.87 0.82 0.81 0.84 0.89 0.91 0.95 1.01 1.10 1.23 1.33 1.40 1.49 1.58 1.61 1.58 1.56 1.56 1.55 1.53 1.49 1.40 1.33 1.28 1.20 1.10 1.05
1.57 1.57 1.67 1.57 1.28 1.12 1.18 1.14 1.10 1.03 1.05 1.07 0.99 0.91 0.92 0.99 1.02 0.99 0.93 0.89 0.88 0.91 0.92 0.94 1.00 1.11 1.18 1.33 1.49 1.56 1.54 1.45 1.38 1.30 1.28 1.28 1.26 1.28 1.32 1.18 1.18 1.10 1.02 0.93
1.29 1.49 1.59 1.49 1.27 1.23 1.24 1.28 1.25 1.22 1.14 1.13 1.19 1.14 1.03 0.99 0.98 0.94 0.92 0.93 0.91 0.92 0.93 0.98 1.06 1.11 1.09 1.13 1.28 1.42 1.42 1.31 1.23 1.18 1.16 1.12 1.08 1.07 1.13 1.11 1.02 0.94 0.97 0.91
1.19 1.38 1.59 1.48 1.42 1.34 1.24 1.29 1.29 1.34 1.36 1.28 1.29 1.28 1.16 1.07 1.02 0.99 0.95 0.84 0.78 0.79 0.83 0.90 0.97 1.07 1.09 1.09 1.15 1.22 1.26 1.27 1.15 1.07 1.08 1.05 1.02 1.02 1.04 1.07 1.07 0.99 0.93 0.91
1.21 1.22 1.30 1.26 1.27 1.32 1.25 1.23 1.28 1.40 1.44 1.41 1.40 1.31 1.16 1.13 1.08 1.01 0.89 0.78 0.77 0.80 0.78 0.82 0.89 0.91 0.93 1.01 1.08 1.09 1.12 1.11 1.05 1.03 1.04 1.02 1.01 0.98 0.97 0.98 1.02 0.97 0.89 0.90
1.17 1.10 1.08 1.19 1.28 1.33 1.36 1.33 1.31 1.29 1.20 1.19 1.22 1.22 1.13 1.06 1.00 0.95 0.87 0.82 0.82 0.83 0.81 0.81 0.82 0.82 0.79 0.83 0.95 0.98 0.97 1.08 0.98 0.95 0.97 0.99 1.02 1.04 1.00 1.01 1.05 1.03 0.95 0.92
1.17 1.12 1.13 1.17 1.17 1.23 1.28 1.23 1.18 1.11 1.09 1.08 1.07 1.07 1.06 1.08 1.02 0.96 0.93 0.88 0.82 0.84 0.87 0.89 0.87 0.84 0.84 0.86 0.91 0.95 0.90 0.91 0.93 0.86 0.86 0.88 0.91 0.96 0.98 0.99 1.01 0.99 0.91 0.86
1.08 1.00 1.08 1.16 1.10 1.09 1.04 1.00 0.94 0.84 0.89 0.98 1.04 1.05 0.98 0.95 0.90 0.93 0.93 0.88 0.80 0.80 0.81 0.84 0.83 0.80 0.79 0.79 0.83 0.90 0.86 0.80 0.79 0.81 0.88 0.87 0.85 0.91 0.94 0.94 0.95 0.97 0.97 0.94
0.94 0.91 0.90 0.91 0.91 0.90 0.83 0.85 0.84 0.79 0.75 0.83 0.92 0.94 0.92 0.90 0.85 0.79 0.79 0.83 0.84 0.83 0.76 0.69 0.72 0.69 0.71 0.76 0.82 0.84 0.85 0.82 0.82 0.83 0.88 0.93 0.94 0.96 0.96 0.97 0.99 1.01 0.99 0.98
0.86 0.89 0.84 0.78 0.78 0.83 0.79 0.74 0.72 0.71 0.70 0.73 0.83 0.88 0.86 0.81 0.79 0.79 0.83 0.88 0.88 0.78 0.64 0.58 0.53 0.55 0.56 0.62 0.71 0.72 0.78 0.80 0.80 0.82 0.86 0.91 0.93 0.96 0.94 0.91 0.93 0.96 0.99 1.05
0.92 0.84 0.80 0.80 0.76 0.75 0.78 0.73 0.74 0.76 0.70 0.69 0.76 0.77 0.77 0.75 0.68 0.70 0.81 0.88 0.84 0.68 0.58 0.62 0.55 0.48 0.46 0.50 0.54 0.54 0.64 0.74 0.77 0.77 0.77 0.80 0.81 0.81 0.82 0.85 0.92 1.01 1.05 1.08
1.04 0.91 0.80 0.76 0.78 0.80 0.81 0.79 0.74 0.75 0.73 0.78 0.81 0.74 0.74 0.77 0.72 0.72 0.73 0.80 0.76 0.73 0.57 0.53 0.54 0.54 0.48 0.43 0.39 0.46 0.58 0.69 0.74 0.75 0.73 0.73 0.78 0.80 0.79 0.85 0.92 0.96 1.01 1.03
0.95 0.87 0.84 0.81 0.78 0.81 0.80 0.77 0.72 0.69 0.69 0.77 0.85 0.84 0.81 0.80 0.80 0.81 0.81 0.73 0.66 0.68 0.59 0.58 0.60 0.58 0.52 0.44 0.42 0.47 0.52 0.57 0.60 0.61 0.62 0.64 0.67 0.74 0.77 0.77 0.75 0.75 0.82 0.86
0.95 0.88 0.83 0.75 0.70 0.76 0.82 0.80 0.76 0.72 0.67 0.71 0.76 0.79 0.80 0.81 0.82 0.80 0.86 0.92 0.82 0.66 0.59 0.64 0.58 0.50 0.50 0.50 0.50 0.48 0.48 0.49 0.52 0.57 0.61 0.64 0.68 0.69 0.66 0.62 0.58 0.58 0.64 0.76
0.98 0.94 0.89 0.85 0.85 0.83 0.80 0.78 0.75 0.72 0.66 0.69 0.70 0.73 0.75 0.79 0.87 0.90 0.89 0.85 0.83 0.69 0.59 0.54 0.49 0.43 0.40 0.44 0.48 0.48 0.47 0.46 0.46 0.46 0.49 0.54 0.56 0.57 0.56 0.53 0.51 0.51 0.54 0.62
1.07 1.01 0.95 0.93 0.93 0.86 0.77 0.78 0.83 0.82 0.78 0.78 0.75 0.72 0.72 0.77 0.85 0.92 0.92 0.86 0.75 0.62 0.54 0.47 0.38 0.34 0.33 0.38 0.43 0.45 0.45 0.46 0.46 0.42 0.39 0.40 0.40 0.39 0.38 0.40 0.44 0.48 0.50 0.49
1.10 1.01 0.93 0.87 0.84 0.78 0.78 0.82 0.85 0.90 0.92 0.86 0.81 0.75 0.76 0.83 0.88 0.86 0.78 0.73 0.65 0.57 0.47 0.38 0.33 0.32 0.32 0.34 0.36 0.36 0.38 0.40 0.44 0.52 0.64 0.69 0.53 0.39 0.36 0.37 0.39 0.45 0.49 0.48

GEFSNGP_prec_meanprecacc_198.txt.gz
Total_Precipitation_Accumulation
0.03 0.06 0.11 0.11 0.08 0.07 0.06 0.05 0.05 0.07 0.11 0.21 0.32 0.36 0.34 0.35 0.40 0.41 0.35 0.35 0.46 0.55 0.59 0.56 0.53 0.51 0.52 0.62 0.72 0.88 1.06 1.09 1.11 1.20 1.34 1.52 1.72 1.80 1.84 1.87 1.86 1.96 1.92 1.83
0.04 0.06 0.08 0.07 0.06 0.06 0.06 0.05 0.05 0.08 0.13 0.19 0.29 0.31 0.27 0.28 0.31 0.36 0.40 0.41 0.48 0.63 0.70 0.75 0.77 0.75 0.78 0.87 1.02 1.23 1.48 1.57 1.66 1.74 1.84 1.94 2.01 2.03 2.11 2.14 2.10 2.03 1.96 1.96
0.09 0.09 0.10 0.08 0.08 0.07 0.07 0.07 0.08 0.12 0.18 0.24 0.31 0.32 0.38 0.39 0.38 0.48 0.53 0.58 0.61 0.74 0.80 0.88 0.87 0.86 0.95 1.05 1.25 1.45 1.58 1.64 1.76 1.87 1.97 2.05 2.09 2.14 2.10 2.08 2.02 1.94 1.98 2.02
0.17 0.19 0.19 0.12 0.13 0.14 0.15 0.18 0.20 0.19 0.23 0.30 0.39 0.41 0.45 0.47 0.44 0.47 0.58 0.71 0.73 0.79 0.82 0.84 0.92 1.01 1.10 1.14 1.21 1.46 1.61 1.67 1.67 1.71 1.78 1.92 2.03 2.03 1.94 1.89 1.84 1.79 1.79 1.71
0.29 0.25 0.26 0.25 0.24 0.24 0.28 0.35 0.31 0.34 0.40 0.43 0.44 0.46 0.48 0.52 0.66 0.64 0.60 0.65 0.71 0.81 0.84 0.86 0.90 0.97 0.97 1.04 1.16 1.30 1.38 1.46 1.48 1.57 1.67 1.75 1.81 1.85 1.86 1.81 1.63 1.48 1.40 1.39
0.41 0.41 0.39 0.39 0.43 0.34 0.36 0.62 0.62 0.58 0.55 0.54 0.57 0.68 0.63 0.51 0.53 0.56 0.57 0.59 0.67 0.79 0.83 0.87 0.91 0.92 0.96 1.05 1.19 1.35 1.48 1.56 1.63 1.69 1.76 1.73 1.77 1.80 1.75 1.65 1.56 1.52 1.44 1.37
0.44 0.48 0.51 0.47 0.42 0.42 0.69 0.92 0.90 0.93 0.89 0.76 0.77 0.75 0.66 0.53 0.50 0.51 0.56 0.60 0.65 0.77 0.90 0.92 0.95 1.02 1.11 1.19 1.27 1.37 1.44 1.52 1.57 1.61 1.67 1.71 1.78 1.73 1.71 1.68 1.62 1.53 1.45 1.40
0.63 0.80 0.93 0.71 0.62 0.80 0.95 0.73 0.76 0.89 1.06 1.07 0.97 0.79 0.65 0.53 0.48 0.47 0.46 0.51 0.65 0.76 0.86 0.96 1.06 1.19 1.25 1.24 1.27 1.37 1.49 1.55 1.55 1.59 1.60 1.61 1.65 1.63 1.61 1.58 1.51 1.42 1.39 1.38
0.93 1.07 1.00 0.84 0.84 0.80 0.89 1.00 1.01 1.09 1.22 1.24 1.09 0.85 0.70 0.61 0.56 0.50 0.48 0.51 0.58 0.68 0.83 0.92 1.06 1.20 1.29 1.34 1.43 1.46 1.55 1.66 1.70 1.67 1.65 1.71 1.80 1.83 1.73 1.65 1.57 1.46 1.36 1.23
1.11 1.25 1.07 0.90 0.91 0.91 0.98 1.14 1.17 1.11 1.09 1.09 1.01 0.87 0.82 0.78 0.71 0.73 0.70 0.67 0.70 0.78 0.84 0.91 1.00 1.11 1.22 1.33 1.43 1.56 1.62 1.66 1.72 1.73 1.73 1.76 1.82 1.79 1.72 1.63 1.53 1.42 1.31 1.22
1.31 1.49 1.40 1.24 1.14 1.07 1.09 1.06 1.14 1.05 1.06 1.02 0.97 0.90 0.89 0.93 0.97 0.94 0.86 0.84 0.85 0.90 0.93 0.96 1.02 1.11 1.26 1.36 1.44 1.53 1.63 1.67 1.66 1.65 1.69 1.71 1.68 1.63 1.53 1.44 1.38 1.29 1.18 1.14
1.61 1.62 1.71 1.62 1.34 1.17 1.21 1.17 1.13 1.06 1.10 1.12 1.05 0.96 0.95 1.03 1.05 1.01 0.94 0.90 0.89 0.92 0.93 0.95 1.02 1.13 1.21 1.37 1.53 1.62 1.60 1.51 1.46 1.38 1.38 1.40 1.37 1.37 1.41 1.26 1.25 1.17 1.10 1.02
1.34 1.57 1.69 1.56 1.38 1.37 1.33 1.32 1.28 1.24 1.19 1.19 1.25 1.18 1.06 1.02 1.01 0.96 0.94 0.95 0.93 0.93 0.95 0.99 1.06 1.12 1.12 1.16 1.32 1.47 1.47 1.38 1.32 1.28 1.26 1.20 1.17 1.17 1.20 1.18 1.09 1.01 1.03 0.98
1.22 1.41 1.66 1.56 1.49 1.44 1.33 1.35 1.32 1.37 1.39 1.32 1.34 1.32 1.20 1.10 1.04 1.01 0.97 0.86 0.80 0.80 0.85 0.91 0.98 1.07 1.11 1.10 1.17 1.25 1.29 1.31 1.20 1.13 1.16 1.15 1.12 1.12 1.13 1.15 1.13 1.05 0.99 0.96
1.23 1.25 1.34 1.32 1.34 1.39 1.30 1.26 1.31 1.43 1.48 1.45 1.44 1.35 1.20 1.15 1.10 1.03 0.91 0.81 0.79 0.81 0.79 0.83 0.90 0.92 0.94 1.02 1.09 1.11 1.14 1.13 1.09 1.08 1.10 1.10 1.11 1.08 1.06 1.06 1.09 1.05 0.96 0.96
1.20 1.12 1.12 1.27 1.34 1.37 1.42 1.38 1.34 1.32 1.24 1.22 1.24 1.25 1.16 1.07 1.01 0.96 0.89 0.84 0.84 0.85 0.83 0.83 0.84 0.84 0.82 0.86 0.98 1.01 1.00 1.11 1.00 0.99 1.03 1.06 1.10 1.12 1.09 1.11 1.13 1.10 1.02 0.99
1.19 1.15 1.17 1.23 1.24 1.27 1.33 1.28 1.21 1.14 1.12 1.10 1.09 1.08 1.07 1.09 1.04 0.98 0.96 0.91 0.86 0.88 0.91 0.93 0.91 0.87 0.87 0.88 0.94 0.98 0.92 0.93 0.96 0.88 0.90 0.95 0.97 1.03 1.05 1.07 1.09 1.07 0.99 0.94
1.10 1.02 1.11 1.21 1.17 1.15 1.09 1.05 0.98 0.88 0.92 1.00 1.06 1.07 1.01 0.99 0.94 0.97 0.97 0.91 0.84 0.85 0.87 0.90 0.88 0.84 0.82 0.83 0.86 0.94 0.90 0.84 0.82 0.84 0.92 0.93 0.93 0.99 1.01 1.01 1.03 1.05 1.04 1.02
0.96 0.93 0.92 0.93 0.94 0.96 0.89 0.91 0.88 0.83 0.80 0.87 0.95 0.97 0.95 0.95 0.91 0.85 0.84 0.88 0.89 0.90 0.83 0.75 0.78 0.73 0.75 0.81 0.87 0.91 0.93 0.90 0.88 0.89 0.94 0.99 1.00 1.02 1.03 1.03 1.06 1.08 1.05 1.04
0.88 0.90 0.85 0.79 0.80 0.88 0.88 0.85 0.78 0.76 0.75 0.77 0.87 0.92 0.92 0.88 0.86 0.86 0.90 0.94 0.92 0.83 0.69 0.66 0.61 0.61 0.61 0.67 0.76 0.77 0.85 0.86 0.85 0.89 0.94 0.97 0.99 1.02 1.00 0.97 0.99 1.02 1.06 1.11
0.94 0.85 0.81 0.82 0.78 0.78 0.86 0.87 0.84 0.84 0.79 0.76 0.82 0.83 0.84 0.81 0.75 0.77 0.88 0.93 0.87 0.70 0.62 0.69 0.65 0.57 0.52 0.56 0.59 0.58 0.69 0.79 0.84 0.86 0.87 0.90 0.91 0.89 0.88 0.92 0.99 1.07 1.10 1.14
1.07 0.93 0.82 0.78 0.80 0.83 0.85 0.86 0.84 0.87 0.88 0.90 0.88 0.82 0.83 0.84 0.79 0.79 0.79 0.84 0.78 0.75 0.60 0.56 0.60 0.63 0.59 0.51 0.47 0.54 0.64 0.76 0.83 0.84 0.82 0.85 0.91 0.90 0.87 0.93 1.01 1.02 1.06 1.08
0.99 0.91 0.87 0.84 0.82 0.84 0.85 0.83 0.81 0.79 0.80 0.88 0.95 0.94 0.91 0.88 0.87 0.87 0.87 0.76 0.68 0.70 0.62 0.60 0.64 0.64 0.61 0.53 0.52 0.58 0.62 0.66 0.68 0.70 0.70 0.75 0.79 0.84 0.87 0.86 0.83 0.83 0.89 0.93
0.98 0.91 0.87 0.79 0.74 0.81 0.88 0.86 0.81 0.76 0.72 0.77 0.84 0.88 0.91 0.88 0.88 0.86 0.91 0.97 0.87 0.72 0.64 0.70 0.65 0.57 0.56 0.57 0.60 0.60 0.60 0.60 0.62 0.69 0.74 0.77 0.80 0.80 0.76 0.72 0.67 0.65 0.71 0.83
1.01 0.96 0.92 0.89 0.89 0.88 0.85 0.82 0.78 0.75 0.71 0.75 0.76 0.79 0.84 0.87 0.93 0.98 0.98 0.95 0.94 0.82 0.70 0.65 0.62 0.55 0.51 0.54 0.58 0.59 0.57 0.56 0.57 0.59 0.62 0.67 0.69 0.69 0.68 0.66 0.66 0.64 0.64 0.71
1.10 1.04 0.98 0.97 0.97 0.90 0.81 0.81 0.86 0.86 0.83 0.84 0.81 0.78 0.79 0.84 0.91 0.99 0.98 0.92 0.81 0.70 0.63 0.61 0.53 0.48 0.45 0.51 0.55 0.58 0.58 0.58 0.57 0.51 0.48 0.49 0.50 0.49 0.48 0.50 0.57 0.64 0.66 0.62
1.13 1.03 0.97 0.91 0.87 0.82 0.82 0.85 0.88 0.93 0.94 0.88 0.84 0.78 0.79 0.86 0.92 0.90 0.82 0.78 0.70 0.63 0.55 0.46 0.41 0.41 0.40 0.42 0.44 0.45 0.48 0.49 0.51 0.58 0.70 0.76 0.59 0.44 0.42 0.43 0.47 0.54 0.60 0.58

GEFSNGP_prec_meanprecacc_204.txt.gz
Total_Precipitation_Accumulation
0.03 0.06 0.11 0.11 0.08 0.07 0.06 0.05 0.05 0.07 0.11 0.21 0.32 0.36 0.35 0.36 0.41 0.42 0.37 0.37 0.48 0.58 0.63 0.59 0.56 0.54 0.56 0.68 0.79 0.97 1.15 1.20 1.21 1.32 1.44 1.59 1.76 1.81 1.85 1.89 1.88 1.98 1.93 1.83
0.04 0.07 0.08 0.07 0.06 0.06 0.06 0.05 0.06 0.08 0.13 0.20 0.29 0.32 0.28 0.29 0.32 0.36 0.41 0.42 0.49 0.65 0.75 0.79 0.82 0.80 0.84 0.94 1.11 1.34 1.57 1.65 1.75 1.84 1.94 2.01 2.05 2.06 2.13 2.16 2.12 2.05 1.97 1.97
0.10 0.10 0.11 0.08 0.08 0.08 0.07 0.08 0.09 0.13 0.18 0.25 0.33 0.34 0.40 0.40 0.39 0.49 0.55 0.59 0.62 0.76 0.84 0.93 0.96 0.97 1.07 1.16 1.36 1.54 1.67 1.72 1.84 1.94 2.03 2.09 2.13 2.17 2.13 2.11 2.05 1.97 2.00 2.05
0.17 0.19 0.20 0.12 0.14 0.14 0.15 0.19 0.22 0.21 0.25 0.32 0.41 0.43 0.47 0.50 0.47 0.50 0.60 0.73 0.75 0.82 0.88 0.90 1.00 1.11 1.20 1.24 1.30 1.53 1.67 1.73 1.73 1.75 1.82 1.96 2.08 2.06 1.97 1.93 1.90 1.85 1.84 1.76
0.29 0.26 0.27 0.27 0.25 0.25 0.29 0.37 0.33 0.37 0.44 0.46 0.47 0.48 0.50 0.54 0.68 0.67 0.64 0.70 0.75 0.85 0.89 0.93 0.97 1.04 1.03 1.08 1.19 1.33 1.41 1.49 1.53 1.62 1.73 1.81 1.88 1.93 1.94 1.89 1.71 1.56 1.47 1.46
0.42 0.42 0.40 0.40 0.44 0.35 0.38 0.64 0.64 0.65 0.66 0.65 0.66 0.73 0.67 0.54 0.55 0.60 0.63 0.64 0.70 0.83 0.87 0.92 0.95 0.96 0.99 1.07 1.21 1.38 1.52 1.60 1.69 1.77 1.85 1.81 1.85 1.90 1.87 1.79 1.70 1.65 1.53 1.44
0.45 0.48 0.51 0.47 0.43 0.43 0.70 0.94 0.95 1.01 0.99 0.88 0.87 0.82 0.72 0.58 0.53 0.53 0.58 0.62 0.67 0.79 0.92 0.93 0.96 1.03 1.12 1.21 1.30 1.43 1.51 1.59 1.64 1.70 1.76 1.79 1.85 1.81 1.80 1.78 1.72 1.61 1.50 1.45
0.64 0.80 0.94 0.72 0.63 0.82 0.98 0.77 0.81 0.98 1.16 1.14 1.05 0.91 0.74 0.58 0.51 0.50 0.48 0.54 0.68 0.77 0.88 0.97 1.07 1.19 1.26 1.26 1.30 1.40 1.55 1.62 1.61 1.65 1.66 1.68 1.73 1.71 1.70 1.67 1.59 1.49 1.45 1.43
0.94 1.09 1.01 0.85 0.86 0.82 0.91 1.03 1.06 1.14 1.28 1.30 1.15 0.94 0.81 0.69 0.61 0.53 0.50 0.54 0.60 0.69 0.84 0.93 1.07 1.21 1.31 1.36 1.45 1.48 1.58 1.69 1.73 1.70 1.68 1.73 1.84 1.88 1.78 1.69 1.62 1.51 1.40 1.27
1.13 1.27 1.09 0.92 0.92 0.92 0.99 1.15 1.19 1.13 1.11 1.12 1.04 0.91 0.88 0.86 0.76 0.75 0.71 0.69 0.71 0.79 0.85 0.92 1.01 1.12 1.24 1.35 1.44 1.58 1.64 1.69 1.75 1.77 1.77 1.79 1.85 1.84 1.76 1.66 1.57 1.47 1.36 1.27
1.33 1.50 1.41 1.25 1.15 1.08 1.10 1.07 1.15 1.07 1.08 1.04 0.99 0.92 0.91 0.95 0.99 0.96 0.88 0.85 0.86 0.91 0.94 0.97 1.03 1.13 1.28 1.38 1.45 1.55 1.66 1.70 1.70 1.69 1.74 1.76 1.74 1.70 1.60 1.51 1.44 1.36 1.25 1.21
1.63 1.63 1.73 1.63 1.35 1.19 1.23 1.19 1.15 1.08 1.12 1.14 1.07 0.98 0.97 1.04 1.06 1.03 0.96 0.91 0.91 0.94 0.95 0.97 1.04 1.16 1.23 1.39 1.55 1.64 1.63 1.55 1.49 1.41 1.41 1.44 1.43 1.44 1.49 1.35 1.35 1.25 1.17 1.08
1.35 1.57 1.69 1.57 1.39 1.38 1.35 1.36 1.33 1.28 1.22 1.22 1.28 1.22 1.08 1.04 1.03 0.98 0.96 0.97 0.95 0.96 0.98 1.02 1.10 1.14 1.14 1.18 1.33 1.50 1.50 1.41 1.36 1.33 1.32 1.27 1.24 1.24 1.30 1.29 1.22 1.13 1.13 1.06
1.23 1.43 1.68 1.57 1.50 1.45 1.38 1.45 1.45 1.44 1.44 1.37 1.37 1.35 1.22 1.12 1.07 1.04 0.99 0.89 0.83 0.83 0.88 0.95 1.00 1.10 1.13 1.12 1.19 1.27 1.31 1.34 1.25 1.20 1.25 1.23 1.20 1.19 1.20 1.22 1.20 1.11 1.05 1.03
1.24 1.26 1.37 1.34 1.35 1.40 1.36 1.36 1.42 1.54 1.60 1.56 1.48 1.38 1.22 1.18 1.14 1.07 0.96 0.86 0.83 0.85 0.83 0.86 0.92 0.94 0.96 1.04 1.11 1.12 1.16 1.16 1.12 1.11 1.13 1.14 1.13 1.10 1.09 1.10 1.12 1.08 1.01 1.02
1.21 1.14 1.14 1.29 1.36 1.38 1.44 1.43 1.39 1.38 1.33 1.31 1.30 1.28 1.18 1.10 1.05 1.00 0.94 0.90 0.91 0.91 0.87 0.85 0.85 0.85 0.83 0.87 0.99 1.01 1.01 1.12 1.02 1.01 1.06 1.09 1.13 1.14 1.11 1.13 1.16 1.13 1.06 1.04
1.20 1.16 1.18 1.25 1.26 1.30 1.35 1.31 1.25 1.18 1.16 1.14 1.12 1.11 1.09 1.12 1.07 1.01 0.99 0.94 0.90 0.92 0.93 0.94 0.92 0.88 0.88 0.89 0.94 0.98 0.93 0.95 0.98 0.90 0.92 0.97 1.00 1.06 1.07 1.09 1.11 1.08 1.01 0.97
1.12 1.04 1.13 1.22 1.18 1.17 1.11 1.07 1.01 0.91 0.95 1.02 1.08 1.09 1.03 1.00 0.96 0.99 0.99 0.93 0.85 0.86 0.88 0.91 0.90 0.86 0.84 0.84 0.88 0.96 0.92 0.86 0.84 0.86 0.95 0.96 0.97 1.03 1.04 1.04 1.05 1.07 1.06 1.05
0.98 0.94 0.94 0.95 0.95 0.96 0.90 0.92 0.89 0.85 0.82 0.88 0.97 0.99 0.97 0.97 0.93 0.86 0.86 0.89 0.90 0.91 0.84 0.76 0.80 0.76 0.78 0.84 0.90 0.93 0.95 0.93 0.91 0.93 1.00 1.06 1.06 1.07 1.07 1.07 1.08 1.10 1.08 1.07
0.89 0.91 0.87 0.81 0.80 0.88 0.89 0.85 0.78 0.76 0.77 0.80 0.89 0.95 0.94 0.91 0.89 0.88 0.92 0.96 0.94 0.84 0.70 0.67 0.63 0.64 0.64 0.69 0.78 0.79 0.87 0.91 0.89 0.92 0.98 1.02 1.04 1.06 1.02 1.00 1.00 1.04 1.09 1.15
0.95 0.86 0.83 0.83 0.78 0.78 0.87 0.87 0.84 0.84 0.81 0.80 0.86 0.87 0.88 0.85 0.79 0.81 0.91 0.97 0.90 0.73 0.63 0.71 0.67 0.61 0.55 0.58 0.61 0.59 0.71 0.82 0.89 0.91 0.91 0.95 0.95 0.92 0.91 0.94 1.01 1.10 1.15 1.20
1.08 0.94 0.84 0.80 0.82 0.85 0.86 0.87 0.86 0.90 0.94 0.98 0.95 0.90 0.90 0.89 0.83 0.83 0.84 0.89 0.83 0.78 0.62 0.58 0.63 0.67 0.62 0.55 0.49 0.56 0.67 0.79 0.86 0.88 0.86 0.89 0.95 0.94 0.91 0.96 1.04 1.06 1.10 1.13
1.01 0.93 0.89 0.85 0.83 0.86 0.87 0.85 0.85 0.85 0.89 1.01 1.08 1.06 1.03 0.97 0.94 0.93 0.94 0.84 0.75 0.75 0.66 0.63 0.67 0.68 0.64 0.56 0.55 0.61 0.65 0.69 0.71 0.73 0.73 0.78 0.83 0.89 0.92 0.91 0.87 0.87 0.93 0.97
1.00 0.92 0.88 0.80 0.75 0.82 0.90 0.89 0.85 0.81 0.80 0.88 0.96 1.01 1.03 1.00 0.98 0.93 1.00 1.06 0.95 0.78 0.68 0.74 0.69 0.61 0.60 0.61 0.64 0.64 0.63 0.63 0.65 0.72 0.78 0.81 0.83 0.85 0.83 0.79 0.74 0.72 0.76 0.88
1.02 0.97 0.94 0.91 0.90 0.89 0.87 0.85 0.82 0.80 0.78 0.82 0.82 0.86 0.92 0.95 1.00 1.03 1.03 1.00 0.98 0.86 0.73 0.67 0.65 0.59 0.54 0.59 0.63 0.64 0.63 0.61 0.63 0.65 0.69 0.74 0.75 0.75 0.74 0.73 0.73 0.71 0.71 0.77
1.11 1.04 0.99 0.99 0.99 0.91 0.83 0.83 0.90 0.91 0.89 0.90 0.87 0.83 0.83 0.88 0.96 1.03 1.01 0.95 0.84 0.72 0.65 0.63 0.57 0.54 0.51 0.56 0.61 0.65 0.66 0.67 0.66 0.60 0.56 0.57 0.57 0.55 0.54 0.56 0.62 0.69 0.73 0.69
1.14 1.05 0.98 0.92 0.89 0.83 0.84 0.87 0.90 0.96 0.98 0.93 0.88 0.81 0.83 0.90 0.95 0.93 0.85 0.80 0.72 0.65 0.57 0.49 0.45 0.46 0.47 0.47 0.49 0.50 0.53 0.54 0.57 0.64 0.76 0.80 0.64 0.49 0.46 0.49 0.52 0.59 0.65 0.64

GEFSNGP_prec_meanprecacc_210.txt.gz
Total_Precipitation_Accumulation
0.03 0.06 0.11 0.11 0.08 0.07 0.07 0.05 0.05 0.07 0.11 0.21 0.32 0.36 0.35 0.37 0.42 0.43 0.38 0.38 0.49 0.60 0.64 0.61 0.58 0.57 0.59 0.71 0.83 1.03 1.24 1.29 1.30 1.40 1.52 1.66 1.83 1.87 1.88 1.90 1.89 1.99 1.95 1.85
0.05 0.07 0.09 0.07 0.07 0.06 0.06 0.05 0.06 0.08 0.13 0.20 0.30 0.33 0.29 0.31 0.33 0.38 0.42 0.43 0.49 0.65 0.76 0.80 0.84 0.83 0.87 0.99 1.18 1.44 1.71 1.80 1.86 1.92 2.01 2.08 2.13 2.12 2.18 2.19 2.14 2.06 1.98 1.99
0.10 0.10 0.11 0.09 0.08 0.08 0.08 0.09 0.09 0.13 0.19 0.25 0.33 0.35 0.41 0.41 0.40 0.50 0.56 0.60 0.64 0.78 0.86 0.96 0.99 1.02 1.12 1.21 1.42 1.62 1.76 1.82 1.91 1.99 2.07 2.13 2.17 2.21 2.17 2.17 2.10 2.00 2.03 2.08
0.18 0.20 0.21 0.13 0.15 0.16 0.17 0.20 0.23 0.23 0.26 0.33 0.42 0.44 0.49 0.51 0.48 0.51 0.62 0.75 0.77 0.85 0.91 0.95 1.05 1.17 1.27 1.30 1.34 1.56 1.72 1.78 1.77 1.78 1.84 1.97 2.09 2.08 1.99 1.97 1.95 1.93 1.94 1.86
0.31 0.27 0.28 0.27 0.26 0.26 0.31 0.39 0.36 0.44 0.49 0.48 0.49 0.50 0.52 0.56 0.70 0.69 0.67 0.72 0.77 0.88 0.92 0.96 1.01 1.09 1.07 1.12 1.22 1.35 1.42 1.51 1.54 1.63 1.74 1.83 1.91 1.96 1.97 1.92 1.75 1.63 1.56 1.53
0.43 0.43 0.41 0.41 0.44 0.35 0.39 0.67 0.67 0.71 0.75 0.70 0.69 0.77 0.70 0.56 0.58 0.63 0.65 0.66 0.73 0.84 0.89 0.94 0.97 0.99 1.02 1.10 1.24 1.41 1.54 1.62 1.70 1.79 1.88 1.86 1.91 1.97 1.94 1.86 1.81 1.76 1.59 1.47
0.45 0.49 0.52 0.48 0.44 0.44 0.72 0.96 0.97 1.04 1.03 0.93 0.92 0.88 0.78 0.62 0.56 0.56 0.60 0.64 0.69 0.80 0.93 0.95 0.98 1.05 1.16 1.26 1.35 1.48 1.56 1.62 1.66 1.73 1.80 1.84 1.93 1.87 1.85 1.82 1.75 1.65 1.53 1.47
0.65 0.81 0.95 0.72 0.64 0.83 0.99 0.78 0.83 1.00 1.18 1.18 1.10 0.96 0.80 0.65 0.56 0.53 0.50 0.55 0.69 0.79 0.89 0.98 1.08 1.21 1.29 1.28 1.32 1.43 1.59 1.66 1.67 1.71 1.72 1.73 1.78 1.75 1.72 1.69 1.61 1.52 1.47 1.46
0.95 1.10 1.02 0.86 0.86 0.83 0.91 1.04 1.09 1.16 1.30 1.33 1.19 1.00 0.89 0.75 0.64 0.56 0.52 0.55 0.61 0.70 0.85 0.94 1.09 1.23 1.33 1.38 1.47 1.50 1.59 1.71 1.76 1.73 1.71 1.76 1.86 1.89 1.79 1.71 1.63 1.52 1.42 1.30
1.14 1.28 1.09 0.92 0.93 0.92 1.00 1.17 1.21 1.15 1.14 1.15 1.08 0.97 1.00 0.97 0.81 0.77 0.73 0.69 0.72 0.80 0.87 0.94 1.03 1.15 1.26 1.37 1.46 1.59 1.65 1.70 1.77 1.78 1.79 1.82 1.88 1.85 1.78 1.68 1.58 1.49 1.38 1.29
1.34 1.52 1.42 1.26 1.16 1.09 1.12 1.09 1.17 1.09 1.10 1.07 1.02 0.96 0.98 1.04 1.06 1.00 0.90 0.86 0.87 0.91 0.96 0.99 1.07 1.16 1.30 1.40 1.46 1.56 1.67 1.72 1.71 1.71 1.76 1.79 1.76 1.71 1.61 1.52 1.46 1.39 1.27 1.22
1.65 1.65 1.74 1.64 1.36 1.20 1.24 1.21 1.17 1.11 1.15 1.17 1.10 1.02 1.01 1.10 1.11 1.07 0.99 0.93 0.93 0.95 0.97 1.00 1.07 1.18 1.26 1.41 1.56 1.65 1.65 1.56 1.51 1.43 1.43 1.45 1.44 1.46 1.50 1.36 1.36 1.27 1.19 1.10
1.36 1.58 1.70 1.58 1.39 1.39 1.36 1.37 1.35 1.31 1.26 1.25 1.31 1.25 1.12 1.06 1.05 1.01 0.99 0.99 0.97 0.98 1.00 1.06 1.14 1.17 1.16 1.21 1.36 1.52 1.53 1.44 1.38 1.35 1.33 1.28 1.24 1.25 1.31 1.31 1.24 1.15 1.17 1.10
1.23 1.43 1.68 1.58 1.51 1.46 1.40 1.47 1.47 1.47 1.48 1.41 1.41 1.38 1.24 1.13 1.08 1.06 1.02 0.92 0.86 0.86 0.91 0.99 1.06 1.14 1.16 1.15 1.22 1.30 1.36 1.39 1.29 1.22 1.26 1.25 1.21 1.20 1.21 1.23 1.22 1.14 1.10 1.07
1.25 1.27 1.37 1.34 1.36 1.41 1.37 1.37 1.44 1.56 1.62 1.59 1.52 1.40 1.24 1.19 1.15 1.09 0.97 0.88 0.86 0.89 0.86 0.89 0.95 0.98 0.99 1.07 1.14 1.16 1.20 1.20 1.16 1.14 1.16 1.16 1.16 1.13 1.12 1.12 1.16 1.11 1.03 1.05
1.22 1.14 1.14 1.30 1.37 1.40 1.46 1.44 1.40 1.39 1.34 1.34 1.34 1.31 1.21 1.12 1.06 1.02 0.95 0.92 0.95 0.96 0.91 0.88 0.88 0.88 0.86 0.90 1.02 1.05 1.04 1.16 1.06 1.04 1.08 1.11 1.15 1.17 1.14 1.15 1.18 1.15 1.08 1.06
1.21 1.17 1.19 1.25 1.27 1.32 1.39 1.34 1.27 1.19 1.18 1.16 1.15 1.14 1.12 1.14 1.08 1.03 1.02 0.98 0.95 0.99 1.00 0.99 0.96 0.91 0.90 0.92 0.97 1.01 0.96 0.97 1.00 0.93 0.94 0.99 1.02 1.09 1.10 1.11 1.13 1.11 1.03 1.00
1.14 1.06 1.14 1.23 1.19 1.19 1.14 1.11 1.04 0.93 0.97 1.04 1.10 1.11 1.06 1.04 1.00 1.02 1.03 0.96 0.89 0.91 0.93 0.96 0.93 0.89 0.86 0.86 0.90 0.98 0.93 0.87 0.86 0.88 0.97 0.99 1.00 1.05 1.07 1.06 1.08 1.09 1.10 1.09
1.00 0.97 0.96 0.96 0.97 0.98 0.92 0.94 0.91 0.87 0.83 0.90 0.99 1.02 1.01 1.01 0.96 0.90 0.89 0.92 0.94 0.95 0.87 0.80 0.83 0.78 0.80 0.86 0.92 0.95 0.97 0.96 0.94 0.96 1.05 1.10 1.10 1.10 1.10 1.10 1.11 1.12 1.10 1.09
0.91 0.93 0.88 0.82 0.82 0.90 0.91 0.87 0.79 0.77 0.78 0.81 0.91 0.97 0.97 0.94 0.92 0.92 0.95 1.00 0.99 0.88 0.73 0.69 0.65 0.66 0.66 0.72 0.81 0.82 0.90 0.94 0.93 0.98 1.04 1.06 1.08 1.10 1.06 1.03 1.03 1.05 1.10 1.17
0.96 0.87 0.83 0.84 0.80 0.81 0.90 0.89 0.85 0.85 0.81 0.81 0.87 0.89 0.91 0.88 0.81 0.83 0.94 1.00 0.92 0.75 0.65 0.73 0.69 0.63 0.57 0.61 0.64 0.63 0.74 0.85 0.93 0.96 0.96 0.99 1.00 0.97 0.96 0.98 1.04 1.12 1.17 1.22
1.09 0.95 0.85 0.81 0.83 0.87 0.88 0.88 0.87 0.91 0.95 1.01 0.98 0.92 0.91 0.91 0.85 0.85 0.86 0.92 0.85 0.81 0.65 0.61 0.66 0.70 0.66 0.58 0.53 0.60 0.70 0.82 0.89 0.91 0.90 0.93 0.99 0.99 0.96 1.00 1.08 1.10 1.14 1.16
1.02 0.94 0.90 0.86 0.84 0.87 0.88 0.87 0.87 0.86 0.91 1.04 1.10 1.08 1.05 1.00 0.96 0.96 0.98 0.88 0.79 0.79 0.69 0.67 0.70 0.71 0.67 0.59 0.58 0.63 0.67 0.72 0.74 0.76 0.77 0.82 0.88 0.95 0.98 0.95 0.91 0.91 0.97 1.02
1.03 0.95 0.91 0.81 0.77 0.85 0.94 0.93 0.88 0.84 0.83 0.91 0.98 1.03 1.06 1.05 1.03 0.97 1.05 1.12 1.00 0.82 0.72 0.77 0.71 0.64 0.63 0.63 0.66 0.66 0.65 0.65 0.68 0.76 0.82 0.85 0.89 0.92 0.90 0.86 0.80 0.77 0.82 0.93
1.06 1.00 0.97 0.94 0.93 0.92 0.91 0.89 0.86 0.84 0.82 0.87 0.86 0.89 0.96 1.01 1.09 1.12 1.11 1.06 1.03 0.90 0.76 0.70 0.67 0.61 0.56 0.61 0.64 0.65 0.64 0.63 0.65 0.69 0.75 0.81 0.83 0.84 0.83 0.81 0.79 0.76 0.76 0.82
1.16 1.08 1.02 1.02 1.02 0.94 0.86 0.87 0.95 0.97 0.95 0.96 0.91 0.85 0.86 0.92 1.02 1.10 1.08 1.00 0.87 0.75 0.67 0.65 0.59 0.56 0.53 0.57 0.62 0.66 0.67 0.69 0.68 0.63 0.61 0.63 0.62 0.60 0.59 0.61 0.66 0.73 0.76 0.73
1.18 1.08 1.00 0.94 0.91 0.86 0.87 0.91 0.96 1.02 1.04 0.99 0.94 0.85 0.85 0.93 0.99 0.99 0.91 0.86 0.76 0.68 0.59 0.50 0.46 0.47 0.48 0.49 0.51 0.52 0.55 0.57 0.60 0.67 0.79 0.83 0.66 0.52 0.49 0.52 0.55 0.61 0.68 0.67

GEFSNGP_prec_meanprecacc_216.txt.gz
Total_Precipitation_Accumulation
0.03 0.07 0.11 0.11 0.08 0.08 0.07 0.06 0.06 0.08 0.13 0.23 0.34 0.38 0.37 0.39 0.43 0.44 0.39 0.39 0.50 0.61 0.66 0.63 0.59 0.58 0.60 0.71 0.84 1.04 1.27 1.32 1.35 1.45 1.57 1.71 1.87 1.91 1.92 1.93 1.91 2.02 1.99 1.90
0.05 0.07 0.09 0.07 0.07 0.07 0.06 0.06 0.06 0.09 0.14 0.24 0.35 0.38 0.34 0.33 0.34 0.39 0.43 0.44 0.51 0.67 0.77 0.83 0.87 0.86 0.90 1.00 1.19 1.46 1.73 1.82 1.89 1.95 2.04 2.11 2.16 2.15 2.21 2.22 2.18 2.10 2.01 2.02
0.10 0.10 0.11 0.09 0.08 0.08 0.08 0.09 0.10 0.14 0.21 0.31 0.42 0.40 0.45 0.43 0.41 0.52 0.57 0.61 0.65 0.79 0.89 1.00 1.04 1.07 1.17 1.26 1.45 1.65 1.79 1.85 1.94 2.03 2.11 2.17 2.21 2.23 2.20 2.20 2.13 2.04 2.07 2.11
0.18 0.20 0.21 0.13 0.15 0.17 0.19 0.21 0.24 0.24 0.30 0.37 0.45 0.46 0.50 0.52 0.50 0.53 0.63 0.76 0.78 0.86 0.95 1.00 1.11 1.23 1.33 1.36 1.40 1.62 1.77 1.84 1.83 1.84 1.91 2.03 2.15 2.13 2.03 2.00 1.99 1.96 1.96 1.88
0.31 0.28 0.28 0.28 0.26 0.27 0.34 0.41 0.38 0.50 0.56 0.51 0.51 0.53 0.55 0.59 0.74 0.72 0.68 0.73 0.78 0.89 0.95 1.01 1.06 1.13 1.11 1.15 1.26 1.39 1.47 1.56 1.60 1.70 1.82 1.91 1.99 2.03 2.03 1.97 1.80 1.67 1.59 1.57
0.44 0.45 0.42 0.42 0.45 0.36 0.39 0.69 0.68 0.74 0.80 0.73 0.72 0.82 0.75 0.58 0.59 0.64 0.67 0.68 0.75 0.88 0.93 0.98 1.02 1.03 1.06 1.14 1.29 1.46 1.59 1.68 1.76 1.86 1.96 1.96 2.03 2.10 2.06 1.96 1.89 1.82 1.65 1.52
0.47 0.51 0.53 0.48 0.44 0.44 0.74 1.00 0.99 1.05 1.06 0.95 0.95 0.94 0.82 0.65 0.59 0.59 0.63 0.68 0.73 0.84 0.98 1.00 1.04 1.11 1.22 1.32 1.43 1.56 1.64 1.69 1.73 1.80 1.88 1.94 2.06 2.02 2.02 1.98 1.89 1.76 1.62 1.52
0.67 0.83 0.96 0.73 0.64 0.84 1.01 0.79 0.84 1.01 1.21 1.21 1.13 1.02 0.85 0.70 0.60 0.56 0.53 0.59 0.73 0.83 0.94 1.04 1.15 1.29 1.39 1.40 1.43 1.53 1.70 1.76 1.73 1.77 1.79 1.81 1.86 1.84 1.83 1.79 1.71 1.62 1.56 1.53
0.97 1.12 1.04 0.87 0.88 0.84 0.92 1.06 1.11 1.19 1.37 1.38 1.23 1.07 0.97 0.83 0.68 0.59 0.54 0.57 0.65 0.74 0.91 1.02 1.17 1.31 1.43 1.51 1.60 1.62 1.69 1.80 1.85 1.82 1.78 1.84 1.94 1.95 1.84 1.75 1.67 1.56 1.46 1.33
1.15 1.30 1.12 0.94 0.94 0.94 1.01 1.19 1.23 1.17 1.18 1.18 1.12 1.02 1.10 1.10 0.89 0.81 0.75 0.72 0.74 0.82 0.89 0.99 1.11 1.24 1.39 1.47 1.55 1.69 1.73 1.75 1.83 1.87 1.89 1.92 1.95 1.91 1.81 1.70 1.61 1.51 1.40 1.32
1.36 1.54 1.45 1.29 1.18 1.11 1.13 1.11 1.19 1.11 1.12 1.10 1.05 0.99 1.03 1.12 1.13 1.04 0.92 0.87 0.89 0.93 0.97 1.01 1.10 1.20 1.38 1.47 1.52 1.62 1.75 1.78 1.76 1.76 1.80 1.85 1.83 1.78 1.66 1.57 1.50 1.43 1.30 1.25
1.67 1.67 1.76 1.66 1.37 1.22 1.27 1.23 1.19 1.13 1.17 1.19 1.13 1.06 1.05 1.14 1.16 1.12 1.02 0.96 0.95 0.97 0.98 1.01 1.09 1.20 1.29 1.45 1.63 1.72 1.73 1.64 1.56 1.48 1.47 1.49 1.48 1.49 1.53 1.39 1.39 1.30 1.21 1.12
1.40 1.61 1.72 1.59 1.40 1.41 1.39 1.39 1.37 1.34 1.28 1.28 1.35 1.29 1.15 1.10 1.10 1.06 1.04 1.03 1.00 1.00 1.02 1.08 1.15 1.19 1.19 1.25 1.41 1.60 1.60 1.50 1.43 1.38 1.36 1.30 1.26 1.27 1.32 1.32 1.25 1.17 1.18 1.11
1.26 1.47 1.71 1.60 1.52 1.48 1.41 1.48 1.48 1.49 1.50 1.43 1.44 1.41 1.27 1.17 1.12 1.09 1.08 0.98 0.89 0.88 0.93 1.00 1.08 1.17 1.21 1.20 1.27 1.36 1.43 1.48 1.35 1.27 1.31 1.28 1.24 1.22 1.23 1.25 1.24 1.16 1.11 1.09
1.26 1.28 1.40 1.36 1.38 1.44 1.39 1.38 1.45 1.57 1.64 1.61 1.55 1.45 1.32 1.26 1.20 1.12 1.00 0.91 0.90 0.92 0.89 0.92 0.98 1.02 1.06 1.14 1.22 1.23 1.26 1.27 1.23 1.21 1.21 1.21 1.20 1.17 1.15 1.15 1.18 1.14 1.05 1.06
1.24 1.15 1.16 1.32 1.41 1.43 1.48 1.46 1.43 1.41 1.36 1.35 1.35 1.35 1.30 1.25 1.15 1.07 0.99 0.96 1.00 1.02 0.96 0.93 0.93 0.95 0.94 0.99 1.11 1.13 1.12 1.23 1.13 1.12 1.15 1.17 1.19 1.22 1.18 1.19 1.22 1.18 1.10 1.07
1.23 1.19 1.20 1.28 1.31 1.37 1.44 1.38 1.30 1.22 1.20 1.18 1.17 1.16 1.16 1.22 1.19 1.13 1.09 1.03 1.01 1.06 1.07 1.06 1.03 0.98 0.98 1.00 1.06 1.10 1.03 1.05 1.07 1.01 1.03 1.07 1.09 1.13 1.14 1.15 1.16 1.13 1.05 1.02
1.17 1.08 1.15 1.25 1.21 1.22 1.17 1.16 1.09 0.96 0.99 1.06 1.13 1.14 1.09 1.09 1.06 1.09 1.10 1.02 0.94 0.97 1.02 1.05 1.00 0.95 0.92 0.93 0.97 1.06 1.02 0.93 0.92 0.96 1.08 1.10 1.11 1.13 1.12 1.10 1.11 1.12 1.12 1.11
1.05 1.00 0.98 1.00 1.00 1.01 0.95 0.98 0.95 0.89 0.85 0.92 1.02 1.06 1.07 1.07 1.02 0.95 0.95 1.00 1.02 1.02 0.96 0.87 0.88 0.83 0.85 0.92 0.97 1.01 1.05 1.03 1.00 1.03 1.13 1.21 1.21 1.20 1.18 1.16 1.17 1.17 1.13 1.12
1.00 1.00 0.95 0.86 0.85 0.94 0.96 0.91 0.83 0.79 0.80 0.83 0.95 1.03 1.05 1.00 0.98 0.98 1.03 1.08 1.07 0.96 0.78 0.73 0.69 0.70 0.70 0.77 0.85 0.87 0.98 1.02 1.01 1.05 1.10 1.14 1.17 1.19 1.15 1.11 1.10 1.12 1.16 1.21
1.03 0.92 0.87 0.86 0.83 0.86 0.95 0.94 0.90 0.88 0.85 0.86 0.94 0.97 0.99 0.94 0.87 0.89 1.01 1.07 1.00 0.81 0.69 0.76 0.73 0.67 0.62 0.65 0.68 0.69 0.81 0.94 1.03 1.04 1.03 1.06 1.06 1.03 1.03 1.07 1.11 1.19 1.23 1.26
1.11 0.97 0.87 0.83 0.87 0.93 0.93 0.93 0.93 0.96 1.01 1.08 1.05 0.99 0.97 0.96 0.90 0.90 0.91 0.97 0.90 0.85 0.69 0.65 0.70 0.74 0.69 0.61 0.56 0.65 0.74 0.86 0.95 0.98 0.97 1.01 1.07 1.06 1.03 1.08 1.16 1.17 1.20 1.22
1.06 0.97 0.93 0.89 0.87 0.92 0.93 0.93 0.93 0.94 0.98 1.10 1.15 1.12 1.09 1.04 1.01 1.01 1.04 0.93 0.82 0.81 0.72 0.70 0.73 0.74 0.70 0.63 0.62 0.67 0.69 0.74 0.77 0.80 0.81 0.89 0.99 1.06 1.06 1.03 1.00 1.00 1.06 1.10
1.08 1.00 0.95 0.86 0.81 0.90 1.02 1.01 0.96 0.93 0.90 0.96 1.02 1.07 1.11 1.10 1.08 1.03 1.10 1.16 1.03 0.85 0.76 0.81 0.75 0.66 0.66 0.66 0.69 0.71 0.69 0.68 0.71 0.79 0.86 0.91 0.98 1.02 1.01 0.98 0.90 0.86 0.91 1.02
1.14 1.07 1.03 1.01 0.99 0.98 0.99 0.98 0.95 0.93 0.89 0.93 0.90 0.93 1.00 1.06 1.13 1.17 1.16 1.10 1.07 0.96 0.81 0.74 0.70 0.63 0.59 0.64 0.67 0.69 0.67 0.66 0.68 0.71 0.78 0.85 0.87 0.89 0.90 0.88 0.85 0.81 0.79 0.86
1.23 1.14 1.07 1.07 1.08 1.01 0.94 0.97 1.07 1.09 1.06 1.06 0.98 0.89 0.89 0.96 1.06 1.14 1.13 1.04 0.92 0.81 0.72 0.69 0.63 0.59 0.55 0.59 0.64 0.69 0.70 0.71 0.70 0.65 0.63 0.65 0.64 0.62 0.61 0.64 0.69 0.75 0.79 0.75
1.23 1.13 1.06 0.99 0.95 0.90 0.94 1.01 1.06 1.13 1.14 1.08 0.99 0.89 0.89 0.96 1.02 1.02 0.96 0.91 0.82 0.74 0.64 0.54 0.49 0.50 0.51 0.51 0.53 0.54 0.58 0.59 0.62 0.69 0.80 0.85 0.68 0.53 0.51 0.54 0.57 0.63 0.69 0.69